Weather History for KBRL - January, 2013

Change the Weather History Date:

Friday, January 25, 2013

  Actual Average Record
Temperature  
Mean Temperature 30 °F 26 °F  
Max Temperature 41 °F 35 °F 63 °F (1981)
Min Temperature 19 °F 17 °F -12 °F (1940)
Degree Days  
Heating Degree Days 35 39  
Month to date heating degree days 975 975  
Since 1 July heating degree days 3168 3161  
Cooling Degree Days 0 0  
Month to date cooling degree days 0 0  
Year to date cooling degree days 0 0  
Moisture  
Dew Point 13 °F    
Average Humidity 54    
Maximum Humidity 69    
Minimum Humidity 38    
Precipitation  
Precipitation 0.00 in 0.04 in 0.45 in (1990)
Month to date precipitation 0.61 1.01  
Year to date precipitation 0.61 1.01  
Sea Level Pressure  
Sea Level Pressure 30.15 in    
Wind  
Wind Speed 10 mph (West)    
Max Wind Speed 20 mph    
Max Gust Speed 25 mph    
Visibility 10 miles    
Events      
T = Trace of Precipitation, MM = Missing Value Source: NWS Daily Summary

Daily Weather History Graph

Daily Weather History Graph

Search for Another Location

Airport or City:

Trip Planner

Search our weather history database for the weather conditions in past years. The results will help you decide how hot, cold, wet, or windy it might be!

Date:

Astronomy

Jan. 25, 2013 Rise Set
Actual Time 7:20 AM CST 5:13 PM CST
Civil Twilight 6:51 AM CST 5:43 PM CST
Nautical Twilight 6:17 AM CST 6:16 PM CST
Astronomical Twilight 5:45 AM CST 6:48 PM CST
Moon 4:11 PM CST (1/25) 6:00 AM CST (1/25)
Length of Visible Light 10h 52m
Length of Day
9h 53m
Waxing Gibbous, 98% of the Moon is Illuminated
Jan 25
Waxing Gibbous
Jan 26
Full
Feb 3
Last Quarter
Feb 10
New
Feb 17
First Quarter

Hourly Weather History & Observations

Time (CST) Temp. Windchill Dew Point Humidity Pressure Visibility Wind Dir Wind Speed Gust Speed Precip Events Conditions
12:53 AM 24.1 °F 15.2 °F 8.1 °F 51% 30.26 in 10.0 mi SSE 8.1 mph - N/A   Overcast
1:40 AM 24.8 °F 14.0 °F 8.6 °F 50% 30.19 in 10.0 mi South 11.5 mph - N/A   Overcast
1:53 AM 24.1 °F 16.0 °F 9.0 °F 53% 30.23 in 10.0 mi South 6.9 mph - N/A   Overcast
2:53 AM 23.0 °F 17.0 °F 10.9 °F 60% 30.23 in 10.0 mi SSW 4.6 mph - N/A   Overcast
3:53 AM 23.0 °F 13.1 °F 10.9 °F 60% 30.17 in 10.0 mi South 9.2 mph - N/A   Overcast
4:53 AM 23.0 °F 15.8 °F 12.0 °F 63% 30.17 in 10.0 mi SSW 5.8 mph - N/A   Overcast
5:00 AM 23.0 °F 14.7 °F 12.2 °F 63% 30.14 in 9.0 mi SSW 6.9 mph - N/A   Overcast
5:53 AM 23.0 °F 17.0 °F 12.2 °F 63% 30.13 in 10.0 mi SW 4.6 mph - N/A   Overcast
6:21 AM 23.0 °F 15.8 °F 12.2 °F 63% 30.13 in 10.0 mi SW 5.8 mph - N/A   Overcast
6:53 AM 23.0 °F 15.8 °F 12.9 °F 65% 30.17 in 10.0 mi WSW 5.8 mph - N/A   Overcast
7:40 AM 23.0 °F 15.8 °F 12.2 °F 63% 30.12 in 10.0 mi WSW 5.8 mph - N/A   Overcast
7:53 AM 23.0 °F 13.9 °F 12.9 °F 65% 30.15 in 10.0 mi West 8.1 mph - N/A   Overcast
8:07 AM 24.8 °F 17.9 °F 12.2 °F 59% 30.12 in 9.0 mi WSW 5.8 mph - N/A   Overcast
8:53 AM 24.1 °F 16.0 °F 12.9 °F 62% 30.16 in 7.0 mi West 6.9 mph - N/A   Overcast
9:53 AM 26.1 °F 15.0 °F 12.9 °F 58% 30.15 in 10.0 mi West 12.7 mph 18.4 mph N/A   Mostly Cloudy
10:02 AM 26.6 °F 17.5 °F 12.2 °F 55% 30.12 in 9.0 mi West 9.2 mph - N/A   Scattered Clouds
10:53 AM 30.0 °F 20.0 °F 12.9 °F 49% 30.13 in 10.0 mi West 12.7 mph - N/A   Clear
11:53 AM 32.0 °F 23.0 °F 12.9 °F 45% 30.10 in 10.0 mi West 11.5 mph - N/A   Clear
12:53 PM 35.1 °F 25.2 °F 14.0 °F 42% 30.08 in 10.0 mi WSW 16.1 mph 21.9 mph N/A   Clear
1:53 PM 37.9 °F 28.5 °F 15.1 °F 39% 30.06 in 9.0 mi West 17.3 mph 24.2 mph N/A   Clear
2:53 PM 39.9 °F 31.1 °F 17.1 °F 40% 30.06 in 9.0 mi West 17.3 mph 24.2 mph N/A   Clear
3:53 PM 41.0 °F 34.3 °F 17.1 °F 38% 30.07 in 8.0 mi WNW 11.5 mph 21.9 mph N/A   Clear
4:53 PM 37.9 °F 30.0 °F 18.0 °F 45% 30.09 in 10.0 mi WNW 12.7 mph - N/A   Clear
5:53 PM 35.1 °F 27.9 °F 19.9 °F 54% 30.11 in 10.0 mi NW 9.2 mph - N/A   Clear
6:53 PM 32.0 °F 25.6 °F 21.0 °F 64% 30.13 in 10.0 mi NW 6.9 mph - N/A   Clear
7:53 PM 30.9 °F 25.2 °F 21.0 °F 67% 30.16 in 10.0 mi NW 5.8 mph - N/A   Clear
8:53 PM 30.0 °F 19.1 °F 21.0 °F 69% 30.19 in 10.0 mi NNW 15.0 mph 18.4 mph N/A   Clear
9:53 PM 24.1 °F 11.5 °F 10.9 °F 57% 30.23 in 10.0 mi NNW 15.0 mph 23.0 mph N/A   Clear
10:53 PM 21.0 °F 9.9 °F 7.0 °F 55% 30.27 in 10.0 mi NNW 10.4 mph 18.4 mph N/A   Clear
11:53 PM 19.0 °F 11.1 °F 6.1 °F 57% 30.29 in 10.0 mi NNW 5.8 mph - N/A   Clear